User: anonymous   Login
Location: Unspecified
(0.0000°N, 0.0000°E)
Time: 04:01:06
(UTC+00:00)
Language:

Kopernikus - Orbit

View from above orbital plane
View from above orbital plane
View from above satellite
View from above satellite

Ground track
Ground track

The orbit data is extracted from the following two-line orbital elements,

1 20041U 89041B   18292.29660736 -.00000049  00000-0  00000+0 0  9993
2 20041  14.9278  10.3222 0016921 243.6298 116.1980  1.00668544 96323
Epoch (UTC): 19 October 2018 07:07:06
Eccentricity: 0.0016921
inclination: 14.9278°
perigee height: 35604 km
apogee height: 35746 km
right ascension of ascending node: 10.3222°
argument of perigee: 243.6298°
revolutions per day: 1.00668544
mean anomaly at epoch: 116.1980°
orbit number at epoch: 9632

The dashed part of the orbit path shows where the satellite is in the earth's shadow,  

DLR